Погода в Морском

Россия / Волгоградская область     48°05′34″N   42°35′24″E
темп.,
°C
ветер,
м/с
пор.,
м/с
влажн.,
%
обл.,
%
осадки,
мм/ч
давл.,
гПа
погр.,
м
14 апреля, ср
ср1400:00+13вюв5115439 0.0 1020177
03:00+11вюв465289 0.0 102098
06:00+10всв485564 0.0 1019138
09:00+14в574490 0.0 1017391
12:00+18в4536100 0.0 1016751
15:00+16в61148100 0.0 1015720
18:00+16ююв2458100 0.0 1015110
21:00+14юз1159100 0.0 101510
15 апреля, чт
чт1500:00+12юз227099 0.0 101525
03:00+11зюз3377100 0.0 101558
06:00+10зюз238362 0.0 101644
09:00+15з446443 0.0 1016492
12:00+18з445142 0.0 10161500
15:00+19з444139 0.0 10152057
18:00+17з35483 0.0 1015131
21:00+13з47651 0.0 1016115
16 апреля, пт
пт1600:00+12з34705 0.0 101664
03:00+11зсз34763 0.0 101650
06:00+10сз338351 0.0 101761
09:00+15зсз336240 0.0 1018475
12:00+18зюз34483 0.0 10181517
15:00+20зюз43384 0.0 10172117
18:00+18з224747 0.0 101744
21:00+14ссз0155100 0.0 101711
17 апреля, сб
сб1700:00+11зсз5985100 0.0 1018362
03:00+11юз2595100 2.8 1019316
06:00+9з7128298 0.9 1020560
09:00+11з67662 0.9 1021832
12:00+15з67514 0.0 10211454
15:00+16з55385 0.0 10212171
18:00+15з34474 0.0 1021224
21:00+11з12665 0.0 102229
18 апреля, вс
вс1800:00+10св11705 0.0 102312
03:00+9всв336980 0.0 102336
06:00+9в347498 0.0 102362
09:00+13в3357100 0.0 1023546
12:00+15в3347100 0.0 10231325
15:00+15вюв2346100 0.0 10221368
18:00+14всв225598 0.0 102262
21:00+12вюв225998 0.0 102214